Current Version              Previous Version:    01  02  03  04  05  06  07  08  09  10  11  12  13  14  15  16  17  18  19  20  21  22  23  24  25  26  27  28  29  30  
   31  32  33  34  35  36  37  38  39  40  41  42  43  44  45  46  47  48  49  50  51  52  53  54  55  56  57  58  59  60  

[Printable]
034
ASUS44 KFWD 311701
RWRTX
NORTH TEXAS HOURLY WEATHER ROUNDUP
NATIONAL WEATHER SERVICE FORT WORTH TX
1200 PM CDT THU JUL 31 2014

NOTE: "FAIR" INDICATES FEW OR NO CLOUDS BELOW 12,000 FEET WITH NO
SIGNIFICANT WEATHER AND/OR OBSTRUCTIONS TO VISIBILITY.

TXZ118-119-311800-
DALLAS/FORT WORTH METROPLEX

CITY           SKY/WX    TMP DP  RH WIND       PRES   REMARKS
DFW AIRPORT    DRIZZLE   75  71  87 NW15      29.98R FOG
DALLAS LOVE    PTSUNNY   84  69  60 W14       29.96S
FTW MEACHAM    CLOUDY    76  70  82 NW12      29.99S
DAL-EXECUTIVE  CLOUDY    85  67  54 W9        29.96S
FTW-ALLIANCE   CLOUDY    74  68  81 N12       30.00R
FTW-NAS-JRB    PTSUNNY   77  69  76 NW14      30.04R
FTW-SPINKS     CLOUDY    77  70  78 NW10      30.02R
ARLINGTON      CLOUDY    79  70  74 NW10      29.99R
GRAND PRAIRIE  CLOUDY    81  68  65 W9        29.99R
MESQUITE       CLOUDY    82  70  65 SW7         N/A
LANCASTER      PTSUNNY   86  66  51 SW5       29.97S
$$

TXZ091>094-102>105-117-120-121-131>134-311800-
NORTH CENTRAL TEXAS

CITY           SKY/WX    TMP DP  RH WIND       PRES   REMARKS
SHRMAN/DENISON CLOUDY    70  67  92 N9        30.01S FOG
GAINESVILLE    CLOUDY    68  66  94 N12       30.04S
BOWIE          CLOUDY    71  66  83 N10       30.05R
BRIDGEPORT     CLOUDY    74  64  72 N9        30.05S
DECATUR        CLOUDY    71  67  88 N7        30.04R
DENTON         CLOUDY    71  68  90 N10       30.01R
MCKINNEY       PTSUNNY   78  73  84 S6        29.97R
GREENVILLE     CLOUDY    73  70  88 SE9       29.97S
ROCKWALL       CLOUDY    78  75  88 CALM      29.95S
TERRELL        LGT RAIN  83  77  82 S9        29.96F HX  92
WAXAHACHIE     MOSUNNY   84  65  52 W7        29.98S
CLEBURNE       FOG       73  73 100 NW7       30.03R VSB 1
GRANBURY       CLOUDY    79  68  69 NW14      30.03S
$$

TXZ083>090-098>101-113>116-127>130-139>142-154-155-311800-
WESTERN NORTH TEXAS

CITY           SKY/WX    TMP DP  RH WIND       PRES   REMARKS
WICHITA FALLS  CLOUDY    73  67  81 N13       30.07R
WF-KICKAPOO    CLOUDY    73  65  75 N12G17    30.09R
VERNON         CLOUDY    71  64  76 N15       30.13S
ABILENE        CLOUDY    72  64  76 N17       30.12S
ABILENE-DYESS  PTSUNNY   71  64  78 N15       30.12S
BRECKENRIDGE   CLOUDY    76  65  67 N13G21    30.08R HAZE
GRAHAM         CLOUDY    74  65  74 N17       30.06R
MINERAL WELLS  CLOUDY    77  66  68 N15       30.02S
STEPHENVILLE   CLOUDY    76  67  73 N12       30.08R
COMANCHE       CLOUDY    75  66  73 N10       30.07S
BROWNWOOD      CLOUDY    75  64  69 N10       30.08R
COLEMAN        CLOUDY    76  63  63 N13G18    30.10R
BRADY          PTSUNNY   79  64  61 N8        30.09R
$$

TXZ143>147-156>162-174-175-311800-
CENTRAL TEXAS

CITY           SKY/WX    TMP DP  RH WIND       PRES   REMARKS
WACO           PTSUNNY   89  67  47 W12       29.98S HX  92
WACO-MCGREGOR  PTSUNNY   88  68  51 W10G17    30.00F HX  91
HILLSBORO      CLOUDY    82  69  64 W13       29.99R
CORSICANA      CLOUDY    84  74  71 S12       29.98S HX  91
MEXIA          CLOUDY    81  75  81 S10       29.98R
CAMERON        PTSUNNY   85  73  68 S10G16    29.99S HX  92
TEMPLE         CLOUDY    82  66  57 NW9       29.98R
KILLEEN        LGT RAIN  81  70  69 NW8       30.02R
KILLEEN-SKYLRK CLOUDY    79  66  65 NW7       30.01S
FORT HOOD      CLOUDY    82  71  69 NW7       30.01S
GATESVILLE     PTSUNNY   84  70  61 NW7       30.03S
HAMILTON       CLOUDY    78  67  68 N14G21    30.05S
LAMPASAS       PTSUNNY   82  71  69 NW7       30.03S
$$

TXZ095>097-106>112-122>126-135>138-148>153-164>167-311800-
EAST TEXAS

CITY           SKY/WX    TMP DP  RH WIND       PRES   REMARKS
PARIS          CLOUDY    70  63  78 E12       30.01S
SULPHUR SPRNGS CLOUDY    74  71  90 SE9       30.01R
CLARKSVILLE    CLOUDY    70  68  93 E7        30.02S
MOUNT PLEASANT CLOUDY    71  69  93 SE8       30.01F
GILMER         CLOUDY    70  70 100 SE9       30.01F
MINEOLA        CLOUDY    72  72 100 SE7       29.99F
TYLER          LGT RAIN  72  69  90 SE10      29.99S
LONGVIEW       LGT RAIN  70  67  90 SE9       30.01F
MARSHALL       CLOUDY    73  71  92 S7        30.06F
ATHENS         CLOUDY    73  72  94 SE7       29.97F
JACKSONVILLE   CLOUDY    73  71  92 E5        30.03F
HENDERSON      CLOUDY    72  70  93 SE10      30.02F
NACOGDOCHES    CLOUDY    72  70  94 SE8       30.04F
LUFKIN         PTSUNNY   83  71  67 E5        30.04R
$$

SUPPLEMENTAL OBSERVATIONS (CENTRAL)

CITY           SKY/WX    TMP DP  RH WIND       PRES   REMARKS
$$

SUPPLEMENTAL OBSERVATIONS (WEST)

CITY           SKY/WX    TMP DP  RH WIND       PRES   REMARKS
$$

SUPPLEMENTAL OBSERVATIONS (EAST)

CITY           SKY/WX    TMP DP  RH WIND       PRES   REMARKS
$$

SUPPLEMENTAL OBSERVATIONS ARE A COLLECTION OF AUTOMATED INSTRUMENTS
THAT ARE MAINTAINED BY A VARIETY OF FEDERAL AND STATE AGENCIES.
CERTAIN ELEMENTS...SUCH AS HUMIDITY VALUES AND SUSTAINED WIND
SPEEDS...MAY BE APPROXIMATED.